Estación Meteorológica Peña el Pijo (Robertgarden) [ 09/29/20 20:40:36 CEST ]

Fecha Hora Presion(HPa) Temp (°C) Humedad % Rocio (°C) Viento ( m/s) Direccion Lluvia 1Hora(mm) Lluvia 24H(mm) LLuvia Total(mm)
2020-Apr-02 01:08:59 1001.800 - - - - N     39.88
2020-Apr-02 02:09:04 1001.700 - - - - N     39.88
2020-Apr-02 03:13:08 1000.900 - - - - N     39.88
2020-Apr-02 04:09:27 1000.600 - - - - N     39.88
2020-Apr-02 05:09:41 999.900 - - - - N     39.88
2020-Apr-02 06:11:33 999.400 - - - - N     39.88
2020-Apr-02 07:08:58 999.400 - - - - N     39.88
2020-Apr-02 08:08:48 999.700 - - - - N     39.88
2020-Apr-02 09:09:13 999.700 - - - - N     39.88
2020-Apr-02 10:09:03 999.700 - - - - N     39.88
2020-Apr-02 11:08:56 999.800 - - - - N     39.88
2020-Apr-02 12:09:02 1000.000 - - - - N     39.88
2020-Apr-02 13:09:07 999.800 - - - - N     39.88
2020-Apr-02 14:09:03 999.800 - - - - N     39.88
2020-Apr-02 15:09:13 999.700 - - - - N     39.88
2020-Apr-02 16:09:04 999.100 - - - - N     39.88
2020-Apr-02 17:09:16 998.900 - - - - N     39.88
2020-Apr-02 18:08:53 999.400 - - - - N     39.88
2020-Apr-02 19:09:02 1000.200 - - - - N     39.88
2020-Apr-02 20:08:57 1000.700 - - - - N     39.88
2020-Apr-02 21:08:39 1001.800 - - - - N     39.88
2020-Apr-02 22:08:56 1002.900 - - - - N     39.88
2020-Apr-02 23:08:53 1003.300 - - - - N     39.88

Temperatura Máxima:    Temperatura Mínima:
Presión Máxima:1003.300 Hpa    Presión Mínima:998.900 Hpa


Volver